TIANTONG-1 2

Last updated on Wed Sep 09 2026 00:03:03 GMT+0000 (Coordinated Universal Time)

1 46916U 20082A 26251.46986660 -.00000376 00000+0 00000+0 0 9994 2 46916 0.7120 340.9879 0000831 239.1627 61.4707 1.00270252 21489
UTC large
Height (km)
Speed (km/s)
/
Latitude / Longitude
Inclination (degrees)
Orbital Period (minutes)
Azimuth
Elevation
Range (km)
Doppler Factor

Next 0 passes for location: London (51.5072 / 0.1276)

No passes found over London.
TIANTONG-1 2